Location: ????????
(55.6333°N, 37.7000°E)
Time: 14:04:13
(UTC+00:00)

ERS-1 Rocket - Pass Details

Date: 19 May 2025
Orbit: 747 x 753 km, 98.2° (Epoch: 21 June)

Event Time Altitude Azimuth Distance (km) Brightness Sun altitude
Rises 18:25:28 0° 178° (S) 3,195 5.7 -5.3°
Reaches altitude 10° 18:27:49 10° 183° (S) 2,275 5.0 -5.6°
Maximum altitude 18:32:42 52° 260° (W) 938 3.7 -6.0°
Drops below altitude 10° 18:37:38 10° 337° (NNW) 2,291 7.0 -6.5°
Sets 18:40:00 0° 342° (NNW) 3,220 7.8 -6.7°
